Year,Month,Day,Hour,Minute,Value (Times are PST for temperature in C)
2006,08,15,00,00,15.20
2006,08,15,00,01,15.10
2006,08,15,00,02,15.00
2006,08,15,00,03,15.00
2006,08,15,00,04,15.00
2006,08,15,00,05,15.00
2006,08,15,00,06,15.00
2006,08,15,00,07,15.00
2006,08,15,00,08,14.90
2006,08,15,00,09,14.90
2006,08,15,00,10,14.90
2006,08,15,00,11,14.90
2006,08,15,00,12,14.80
2006,08,15,00,13,14.80
2006,08,15,00,14,14.80
2006,08,15,00,15,14.80
2006,08,15,00,16,14.80
2006,08,15,00,17,14.70
2006,08,15,00,18,14.70
2006,08,15,00,19,14.70
2006,08,15,00,20,14.60
2006,08,15,00,21,14.60
2006,08,15,00,22,14.60
2006,08,15,00,23,14.60
2006,08,15,00,24,14.60
2006,08,15,00,25,14.60
2006,08,15,00,26,14.60
2006,08,15,00,27,14.60
2006,08,15,00,28,14.60
2006,08,15,00,29,14.50
2006,08,15,00,30,14.50
2006,08,15,00,31,14.50
2006,08,15,00,32,14.40
2006,08,15,00,33,14.40
2006,08,15,00,34,14.40
2006,08,15,00,35,14.30
2006,08,15,00,36,14.30
2006,08,15,00,37,14.30
2006,08,15,00,38,14.30
2006,08,15,00,39,14.30
2006,08,15,00,40,14.20
2006,08,15,00,41,14.20
2006,08,15,00,42,14.20
2006,08,15,00,43,14.10
2006,08,15,00,44,14.10
2006,08,15,00,45,14.10
2006,08,15,00,46,14.00
2006,08,15,00,47,14.00
2006,08,15,00,48,14.00
2006,08,15,00,49,13.90
2006,08,15,00,50,13.90
2006,08,15,00,51,13.90
2006,08,15,00,52,13.90
2006,08,15,00,53,13.80
2006,08,15,00,54,13.80
2006,08,15,00,55,13.80
2006,08,15,00,56,13.80
2006,08,15,00,57,13.70
2006,08,15,00,58,13.70
2006,08,15,00,59,13.70
2006,08,15,01,00,13.70
2006,08,15,01,01,13.70
2006,08,15,01,02,13.70
2006,08,15,01,03,13.70
2006,08,15,01,04,13.70
2006,08,15,01,05,13.70
2006,08,15,01,06,13.60
2006,08,15,01,07,13.60
2006,08,15,01,08,13.60
2006,08,15,01,09,13.60
2006,08,15,01,10,13.50
2006,08,15,01,11,13.50
2006,08,15,01,12,13.40
2006,08,15,01,13,13.40
2006,08,15,01,14,13.40
2006,08,15,01,15,13.40
2006,08,15,01,16,13.40
2006,08,15,01,17,13.30
2006,08,15,01,18,13.30
2006,08,15,01,19,13.30
2006,08,15,01,20,13.30
2006,08,15,01,21,13.30
2006,08,15,01,22,13.30
2006,08,15,01,23,13.20
2006,08,15,01,24,13.20
2006,08,15,01,25,13.20
2006,08,15,01,26,13.20
2006,08,15,01,27,13.20
2006,08,15,01,28,13.10
2006,08,15,01,29,13.10
2006,08,15,01,30,13.10
2006,08,15,01,31,13.10
2006,08,15,01,32,13.10
2006,08,15,01,33,13.10
2006,08,15,01,34,13.00
2006,08,15,01,35,13.00
2006,08,15,01,36,13.00
2006,08,15,01,37,12.90
2006,08,15,01,38,12.90
2006,08,15,01,39,12.90
2006,08,15,01,40,12.90
2006,08,15,01,41,12.80
2006,08,15,01,42,12.80
2006,08,15,01,43,12.80
2006,08,15,01,44,12.80
2006,08,15,01,45,12.80
2006,08,15,01,46,12.80
2006,08,15,01,47,12.70
2006,08,15,01,48,12.70
2006,08,15,01,49,12.60
2006,08,15,01,50,12.60
2006,08,15,01,51,12.60
2006,08,15,01,52,12.50
2006,08,15,01,53,12.50
2006,08,15,01,54,12.50
2006,08,15,01,55,12.40
2006,08,15,01,56,12.40
2006,08,15,01,57,12.40
2006,08,15,01,58,12.30
2006,08,15,01,59,12.30
2006,08,15,02,00,12.30
2006,08,15,02,01,12.20
2006,08,15,02,02,12.20
2006,08,15,02,03,12.20
2006,08,15,02,04,12.10
2006,08,15,02,05,12.20
2006,08,15,02,06,12.20
2006,08,15,02,07,12.20
2006,08,15,02,08,12.20
2006,08,15,02,09,12.20
2006,08,15,02,10,12.20
2006,08,15,02,11,12.20
2006,08,15,02,12,12.20
2006,08,15,02,13,12.20
2006,08,15,02,14,12.20
2006,08,15,02,15,12.20
2006,08,15,02,16,12.20
2006,08,15,02,17,12.10
2006,08,15,02,18,12.10
2006,08,15,02,19,12.10
2006,08,15,02,20,12.10
2006,08,15,02,21,12.10
2006,08,15,02,22,12.10
2006,08,15,02,23,12.10
2006,08,15,02,24,12.00
2006,08,15,02,25,12.00
2006,08,15,02,26,12.00
2006,08,15,02,27,11.90
2006,08,15,02,28,11.90
2006,08,15,02,29,11.90
2006,08,15,02,30,11.80
2006,08,15,02,31,11.80
2006,08,15,02,32,11.80
2006,08,15,02,33,11.80
2006,08,15,02,34,11.80
2006,08,15,02,35,11.80
2006,08,15,02,36,11.80
2006,08,15,02,37,11.80
2006,08,15,02,38,11.80
2006,08,15,02,39,11.80
2006,08,15,02,40,11.80
2006,08,15,02,41,11.70
2006,08,15,02,42,11.70
2006,08,15,02,43,11.70
2006,08,15,02,44,11.70
2006,08,15,02,45,11.70
2006,08,15,02,46,11.70
2006,08,15,02,47,11.70
2006,08,15,02,48,11.70
2006,08,15,02,49,11.70
2006,08,15,02,50,11.70
2006,08,15,02,51,11.70
2006,08,15,02,52,11.70
2006,08,15,02,53,11.70
2006,08,15,02,54,11.70
2006,08,15,02,55,11.60
2006,08,15,02,56,11.60
2006,08,15,02,57,11.50
2006,08,15,02,58,11.50
2006,08,15,02,59,11.40
2006,08,15,03,00,11.40
2006,08,15,03,01,11.30
2006,08,15,03,02,11.30
2006,08,15,03,03,11.20
2006,08,15,03,04,11.20
2006,08,15,03,05,11.10
2006,08,15,03,06,11.10
2006,08,15,03,07,11.00
2006,08,15,03,08,11.00
2006,08,15,03,09,10.90
2006,08,15,03,10,10.90
2006,08,15,03,11,10.80
2006,08,15,03,12,10.80
2006,08,15,03,13,10.80
2006,08,15,03,14,10.70
2006,08,15,03,15,10.70
2006,08,15,03,16,10.70
2006,08,15,03,17,10.60
2006,08,15,03,18,10.60
2006,08,15,03,19,10.60
2006,08,15,03,20,10.60
2006,08,15,03,21,10.50
2006,08,15,03,22,10.50
2006,08,15,03,23,10.50
2006,08,15,03,24,10.40
2006,08,15,03,25,10.40
2006,08,15,03,26,10.40
2006,08,15,03,27,10.30
2006,08,15,03,28,10.30
2006,08,15,03,29,10.30
2006,08,15,03,30,10.30
2006,08,15,03,31,10.30
2006,08,15,03,32,10.30
2006,08,15,03,33,10.30
2006,08,15,03,34,10.30
2006,08,15,03,35,10.40
2006,08,15,03,36,10.40
2006,08,15,03,37,10.40
2006,08,15,03,38,10.40
2006,08,15,03,39,10.40
2006,08,15,03,40,10.40
2006,08,15,03,41,10.40
2006,08,15,03,42,10.40
2006,08,15,03,43,10.40
2006,08,15,03,44,10.40
2006,08,15,03,45,10.40
2006,08,15,03,46,10.40
2006,08,15,03,47,10.40
2006,08,15,03,48,10.30
2006,08,15,03,49,10.30
2006,08,15,03,50,10.30
2006,08,15,03,51,10.30
2006,08,15,03,52,10.30
2006,08,15,03,53,10.30
2006,08,15,03,54,10.30
2006,08,15,03,55,10.30
2006,08,15,03,56,10.20
2006,08,15,03,57,10.20
2006,08,15,03,58,10.20
2006,08,15,03,59,10.20
2006,08,15,04,00,10.20
2006,08,15,04,01,10.20
2006,08,15,04,02,10.20
2006,08,15,04,03,10.20
2006,08,15,04,04,10.10
2006,08,15,04,05,10.10
2006,08,15,04,06,10.10
2006,08,15,04,07,10.10
2006,08,15,04,08,10.10
2006,08,15,04,09,10.10
2006,08,15,04,10,10.10
2006,08,15,04,11,10.00
2006,08,15,04,12,10.00
2006,08,15,04,13,10.00
2006,08,15,04,14,9.90
2006,08,15,04,15,9.90
2006,08,15,04,16,9.90
2006,08,15,04,17,9.90
2006,08,15,04,18,9.80
2006,08,15,04,19,9.80
2006,08,15,04,20,9.80
2006,08,15,04,21,9.80
2006,08,15,04,22,9.80
2006,08,15,04,23,9.70
2006,08,15,04,24,9.70
2006,08,15,04,25,9.70
2006,08,15,04,26,9.70
2006,08,15,04,27,9.70
2006,08,15,04,28,9.70
2006,08,15,04,29,9.70
2006,08,15,04,30,9.70
2006,08,15,04,31,9.70
2006,08,15,04,32,9.70
2006,08,15,04,33,9.70
2006,08,15,04,34,9.60
2006,08,15,04,35,9.60
2006,08,15,04,36,9.60
2006,08,15,04,37,9.60
2006,08,15,04,38,9.60
2006,08,15,04,39,9.60
2006,08,15,04,40,9.50
2006,08,15,04,41,9.50
2006,08,15,04,42,9.40
2006,08,15,04,43,9.40
2006,08,15,04,44,9.40
2006,08,15,04,45,9.30
2006,08,15,04,46,9.30
2006,08,15,04,47,9.30
2006,08,15,04,48,9.30
2006,08,15,04,49,9.30
2006,08,15,04,50,9.30
2006,08,15,04,51,9.20
2006,08,15,04,52,9.20
2006,08,15,04,53,9.20
2006,08,15,04,54,9.20
2006,08,15,04,55,9.20
2006,08,15,04,56,9.20
2006,08,15,04,57,9.20
2006,08,15,04,58,9.20
2006,08,15,04,59,9.10
2006,08,15,05,00,9.10
2006,08,15,05,01,9.10
2006,08,15,05,02,9.10
2006,08,15,05,03,9.10
2006,08,15,05,04,9.10
2006,08,15,05,05,9.10
2006,08,15,05,06,9.10
2006,08,15,05,07,9.10
2006,08,15,05,08,9.00
2006,08,15,05,09,9.00
2006,08,15,05,10,9.00
2006,08,15,05,11,9.00
2006,08,15,05,12,9.00
2006,08,15,05,13,9.00
2006,08,15,05,14,9.00
2006,08,15,05,15,8.90
2006,08,15,05,16,8.90
2006,08,15,05,17,8.90
2006,08,15,05,18,8.90
2006,08,15,05,19,8.90
2006,08,15,05,20,8.90
2006,08,15,05,21,8.90
2006,08,15,05,22,8.90
2006,08,15,05,23,8.90
2006,08,15,05,24,8.80
2006,08,15,05,25,8.80
2006,08,15,05,26,8.80
2006,08,15,05,27,8.80
2006,08,15,05,28,8.80
2006,08,15,05,29,8.80
2006,08,15,05,30,8.80
2006,08,15,05,31,8.80
2006,08,15,05,32,8.80
2006,08,15,05,33,8.80
2006,08,15,05,34,8.80
2006,08,15,05,35,8.80
2006,08,15,05,36,8.80
2006,08,15,05,37,8.80
2006,08,15,05,38,8.80
2006,08,15,05,39,8.80
2006,08,15,05,40,8.70
2006,08,15,05,41,8.70
2006,08,15,05,42,8.70
2006,08,15,05,43,8.70
2006,08,15,05,44,8.70
2006,08,15,05,45,8.60
2006,08,15,05,46,8.60
2006,08,15,05,47,8.60
2006,08,15,05,48,8.60
2006,08,15,05,49,8.60
2006,08,15,05,50,8.60
2006,08,15,05,51,8.50
2006,08,15,05,52,8.50
2006,08,15,05,53,8.50
2006,08,15,05,54,8.40
2006,08,15,05,55,8.40
2006,08,15,05,56,8.40
2006,08,15,05,57,8.40
2006,08,15,05,58,8.40
2006,08,15,05,59,8.40
2006,08,15,06,00,8.30
2006,08,15,06,01,8.30
2006,08,15,06,02,8.30
2006,08,15,06,03,8.30
2006,08,15,06,04,8.30
2006,08,15,06,05,8.30
2006,08,15,06,06,8.30
2006,08,15,06,07,8.20
2006,08,15,06,08,8.20
2006,08,15,06,09,8.20
2006,08,15,06,10,8.20
2006,08,15,06,11,8.20
2006,08,15,06,12,8.20
2006,08,15,06,13,8.20
2006,08,15,06,14,8.20
2006,08,15,06,15,8.10
2006,08,15,06,16,8.10
2006,08,15,06,17,8.10
2006,08,15,06,18,8.10
2006,08,15,06,19,8.10
2006,08,15,06,20,8.10
2006,08,15,06,21,8.00
2006,08,15,06,22,8.00
2006,08,15,06,23,8.00
2006,08,15,06,24,8.00
2006,08,15,06,25,8.00
2006,08,15,06,26,8.00
2006,08,15,06,27,8.00
2006,08,15,06,28,7.90
2006,08,15,06,29,7.90
2006,08,15,06,30,7.90
2006,08,15,06,31,7.90
2006,08,15,06,32,7.90
2006,08,15,06,33,7.90
2006,08,15,06,34,7.90
2006,08,15,06,35,7.90
2006,08,15,06,36,7.90
2006,08,15,06,37,7.80
2006,08,15,06,38,7.80
2006,08,15,06,39,7.80
2006,08,15,06,40,7.80
2006,08,15,06,41,7.80
2006,08,15,06,42,7.80
2006,08,15,06,43,7.80
2006,08,15,06,44,7.80
2006,08,15,06,45,7.80
2006,08,15,06,46,7.80
2006,08,15,06,47,7.80
2006,08,15,06,48,7.80
2006,08,15,06,49,7.80
2006,08,15,06,50,7.70
2006,08,15,06,51,7.70
2006,08,15,06,52,7.70
2006,08,15,06,53,7.70
2006,08,15,06,54,7.70
2006,08,15,06,55,7.70
2006,08,15,06,56,7.70
2006,08,15,06,57,7.70
2006,08,15,06,58,7.70
2006,08,15,06,59,7.70
2006,08,15,07,00,7.70
2006,08,15,07,01,7.70
2006,08,15,07,02,7.70
2006,08,15,07,03,7.70
2006,08,15,07,04,7.70
2006,08,15,07,05,7.70
2006,08,15,07,06,7.70
2006,08,15,07,07,7.70
2006,08,15,07,08,7.70
2006,08,15,07,09,7.60
2006,08,15,07,10,7.60
2006,08,15,07,11,7.60
2006,08,15,07,12,7.60
2006,08,15,07,13,7.60
2006,08,15,07,14,7.60
2006,08,15,07,15,7.60
2006,08,15,07,16,7.60
2006,08,15,07,17,7.60
2006,08,15,07,18,7.60
2006,08,15,07,19,7.60
2006,08,15,07,20,7.60
2006,08,15,07,21,7.60
2006,08,15,07,22,7.60
2006,08,15,07,23,7.60
2006,08,15,07,24,7.60
2006,08,15,07,25,7.60
2006,08,15,07,26,7.60
2006,08,15,07,27,7.60
2006,08,15,07,28,7.70
2006,08,15,07,29,7.70
2006,08,15,07,30,7.70
2006,08,15,07,31,7.70
2006,08,15,07,32,7.70
2006,08,15,07,33,7.80
2006,08,15,07,34,7.80
2006,08,15,07,35,7.80
2006,08,15,07,36,7.80
2006,08,15,07,37,7.90
2006,08,15,07,38,7.90
2006,08,15,07,39,8.00
2006,08,15,07,40,8.00
2006,08,15,07,41,8.00
2006,08,15,07,42,8.10
2006,08,15,07,43,8.10
2006,08,15,07,44,8.20
2006,08,15,07,45,8.20
2006,08,15,07,46,8.20
2006,08,15,07,47,8.30
2006,08,15,07,48,8.30
2006,08,15,07,49,8.40
2006,08,15,07,50,8.50
2006,08,15,07,51,8.60
2006,08,15,07,52,8.70
2006,08,15,07,53,8.90
2006,08,15,07,54,9.10
2006,08,15,07,55,9.30
2006,08,15,07,56,9.40
2006,08,15,07,57,9.60
2006,08,15,07,58,9.70
2006,08,15,07,59,9.80
2006,08,15,08,00,10.00
2006,08,15,08,01,10.10
2006,08,15,08,02,10.30
2006,08,15,08,03,10.40
2006,08,15,08,04,10.50
2006,08,15,08,05,10.60
2006,08,15,08,06,10.60
2006,08,15,08,07,10.70
2006,08,15,08,08,10.70
2006,08,15,08,09,10.80
2006,08,15,08,10,10.80
2006,08,15,08,11,10.80
2006,08,15,08,12,10.90
2006,08,15,08,13,10.90
2006,08,15,08,14,10.90
2006,08,15,08,15,10.90
2006,08,15,08,16,11.00
2006,08,15,08,17,11.00
2006,08,15,08,18,11.00
2006,08,15,08,19,11.10
2006,08,15,08,20,11.10
2006,08,15,08,21,11.20
2006,08,15,08,22,11.20
2006,08,15,08,23,11.30
2006,08,15,08,24,11.30
2006,08,15,08,25,11.30
2006,08,15,08,26,11.40
2006,08,15,08,27,11.40
2006,08,15,08,28,11.50
2006,08,15,08,29,11.60
2006,08,15,08,30,11.60
2006,08,15,08,31,11.70
2006,08,15,08,32,11.80
2006,08,15,08,33,11.80
2006,08,15,08,34,11.90
2006,08,15,08,35,11.90
2006,08,15,08,36,12.00
2006,08,15,08,37,12.10
2006,08,15,08,38,12.20
2006,08,15,08,39,12.30
2006,08,15,08,40,12.40
2006,08,15,08,41,12.60
2006,08,15,08,42,12.70
2006,08,15,08,43,12.80
2006,08,15,08,44,12.80
2006,08,15,08,45,13.00
2006,08,15,08,46,13.10
2006,08,15,08,47,13.10
2006,08,15,08,48,13.20
2006,08,15,08,49,13.30
2006,08,15,08,50,13.30
2006,08,15,08,51,13.30
2006,08,15,08,52,13.30
2006,08,15,08,53,13.30
2006,08,15,08,54,13.30
2006,08,15,08,55,13.40
2006,08,15,08,56,13.40
2006,08,15,08,57,13.50
2006,08,15,08,58,13.50
2006,08,15,08,59,13.60
2006,08,15,09,00,13.70
2006,08,15,09,01,13.70
2006,08,15,09,02,13.80
2006,08,15,09,03,13.90
2006,08,15,09,04,14.00
2006,08,15,09,05,14.10
2006,08,15,09,06,14.20
2006,08,15,09,07,14.30
2006,08,15,09,08,14.40
2006,08,15,09,09,14.60
2006,08,15,09,10,14.70
2006,08,15,09,11,14.80
2006,08,15,09,12,14.90
2006,08,15,09,13,15.00
2006,08,15,09,14,15.00
2006,08,15,09,15,15.00
2006,08,15,09,16,15.10
2006,08,15,09,17,15.20
2006,08,15,09,18,15.30
2006,08,15,09,19,15.30
2006,08,15,09,20,15.40
2006,08,15,09,21,15.50
2006,08,15,09,22,15.60
2006,08,15,09,23,15.70
2006,08,15,09,24,15.80
2006,08,15,09,25,15.90
2006,08,15,09,26,15.90
2006,08,15,09,27,16.00
2006,08,15,09,28,16.00
2006,08,15,09,29,16.10
2006,08,15,09,30,16.20
2006,08,15,09,31,16.20
2006,08,15,09,32,16.30
2006,08,15,09,33,16.30
2006,08,15,09,34,16.40
2006,08,15,09,35,16.40
2006,08,15,09,36,16.50
2006,08,15,09,37,16.50
2006,08,15,09,38,16.50
2006,08,15,09,39,16.60
2006,08,15,09,40,16.60
2006,08,15,09,41,16.70
2006,08,15,09,42,16.80
2006,08,15,09,43,16.90
2006,08,15,09,44,16.90
2006,08,15,09,45,17.00
2006,08,15,09,46,17.10
2006,08,15,09,47,17.10
2006,08,15,09,48,17.20
2006,08,15,09,49,17.30
2006,08,15,09,50,17.40
2006,08,15,09,51,17.40
2006,08,15,09,52,17.50
2006,08,15,09,53,17.50
2006,08,15,09,54,17.50
2006,08,15,09,55,17.50
2006,08,15,09,56,17.50
2006,08,15,09,57,17.40
2006,08,15,09,58,17.40
2006,08,15,09,59,17.40
2006,08,15,10,00,17.50
2006,08,15,10,01,17.50
2006,08,15,10,02,17.50
2006,08,15,10,03,17.60
2006,08,15,10,04,17.60
2006,08,15,10,05,17.60
2006,08,15,10,06,17.70
2006,08,15,10,07,17.70
2006,08,15,10,08,17.70
2006,08,15,10,09,17.70
2006,08,15,10,10,17.70
2006,08,15,10,11,17.70
2006,08,15,10,12,17.70
2006,08,15,10,13,17.70
2006,08,15,10,14,17.70
2006,08,15,10,15,17.70
2006,08,15,10,16,17.80
2006,08,15,10,17,17.80
2006,08,15,10,18,17.80
2006,08,15,10,19,17.80
2006,08,15,10,20,17.90
2006,08,15,10,21,17.90
2006,08,15,10,22,18.00
2006,08,15,10,23,18.00
2006,08,15,10,24,18.10
2006,08,15,10,25,18.20
2006,08,15,10,26,18.20
2006,08,15,10,27,18.20
2006,08,15,10,28,18.20
2006,08,15,10,29,18.10
2006,08,15,10,30,18.00
2006,08,15,10,31,18.00
2006,08,15,10,32,18.00
2006,08,15,10,33,18.00
2006,08,15,10,34,18.10
2006,08,15,10,35,18.20
2006,08,15,10,36,18.30
2006,08,15,10,37,18.40
2006,08,15,10,38,18.40
2006,08,15,10,39,18.50
2006,08,15,10,40,18.50
2006,08,15,10,41,18.50
2006,08,15,10,42,18.60
2006,08,15,10,43,18.60
2006,08,15,10,44,18.70
2006,08,15,10,45,18.70
2006,08,15,10,46,18.70
2006,08,15,10,47,18.80
2006,08,15,10,48,18.80
2006,08,15,10,49,18.70
2006,08,15,10,50,18.70
2006,08,15,10,51,18.70
2006,08,15,10,52,18.70
2006,08,15,10,53,18.70
2006,08,15,10,54,18.70
2006,08,15,10,55,18.80
2006,08,15,10,56,18.80
2006,08,15,10,57,18.80
2006,08,15,10,58,18.90
2006,08,15,10,59,19.00
2006,08,15,11,00,19.00
2006,08,15,11,01,19.10
2006,08,15,11,02,19.10
2006,08,15,11,03,19.10
2006,08,15,11,04,19.10
2006,08,15,11,05,19.10
2006,08,15,11,06,19.10
2006,08,15,11,07,19.20
2006,08,15,11,08,19.20
2006,08,15,11,09,19.20
2006,08,15,11,10,19.20
2006,08,15,11,11,19.20
2006,08,15,11,12,19.20
2006,08,15,11,13,19.20
2006,08,15,11,14,19.30
2006,08,15,11,15,19.30
2006,08,15,11,16,19.30
2006,08,15,11,17,19.30
2006,08,15,11,18,19.30
2006,08,15,11,19,19.30
2006,08,15,11,20,19.40
2006,08,15,11,21,19.50
2006,08,15,11,22,19.60
2006,08,15,11,23,19.60
2006,08,15,11,24,19.60
2006,08,15,11,25,19.70
2006,08,15,11,26,19.80
2006,08,15,11,27,19.80
2006,08,15,11,28,19.80
2006,08,15,11,29,19.80
2006,08,15,11,30,19.80
2006,08,15,11,31,19.80
2006,08,15,11,32,19.90
2006,08,15,11,33,20.00
2006,08,15,11,34,20.10
2006,08,15,11,35,20.20
2006,08,15,11,36,20.30
2006,08,15,11,37,20.30
2006,08,15,11,38,20.30
2006,08,15,11,39,20.30
2006,08,15,11,40,20.30
2006,08,15,11,41,20.30
2006,08,15,11,42,20.30
2006,08,15,11,43,20.30
2006,08,15,11,44,20.30
2006,08,15,11,45,20.30
2006,08,15,11,46,20.30
2006,08,15,11,47,20.40
2006,08,15,11,48,20.40
2006,08,15,11,49,20.40
2006,08,15,11,50,20.50
2006,08,15,11,51,20.50
2006,08,15,11,52,20.50
2006,08,15,11,53,20.50
2006,08,15,11,54,20.50
2006,08,15,11,55,20.60
2006,08,15,11,56,20.50
2006,08,15,11,57,20.40
2006,08,15,11,58,20.40
2006,08,15,11,59,20.40
2006,08,15,12,00,20.40
2006,08,15,12,01,20.40
2006,08,15,12,02,20.40
2006,08,15,12,03,20.50
2006,08,15,12,04,20.60
2006,08,15,12,05,20.60
2006,08,15,12,06,20.60
2006,08,15,12,07,20.60
2006,08,15,12,08,20.60
2006,08,15,12,09,20.60
2006,08,15,12,10,20.60
2006,08,15,12,11,20.70
2006,08,15,12,12,20.80
2006,08,15,12,13,20.80
2006,08,15,12,14,20.80
2006,08,15,12,15,20.80
2006,08,15,12,16,20.80
2006,08,15,12,17,20.70
2006,08,15,12,18,20.70
2006,08,15,12,19,20.60
2006,08,15,12,20,20.60
2006,08,15,12,21,20.70
2006,08,15,12,22,20.70
2006,08,15,12,23,20.70
2006,08,15,12,24,20.70
2006,08,15,12,25,20.70
2006,08,15,12,26,20.80
2006,08,15,12,27,20.90
2006,08,15,12,28,21.00
2006,08,15,12,29,21.10
2006,08,15,12,30,21.10
2006,08,15,12,31,21.10
2006,08,15,12,32,21.00
2006,08,15,12,33,20.90
2006,08,15,12,34,21.00
2006,08,15,12,35,21.00
2006,08,15,12,36,21.10
2006,08,15,12,37,21.10
2006,08,15,12,38,21.00
2006,08,15,12,39,20.90
2006,08,15,12,40,20.90
2006,08,15,12,41,20.90
2006,08,15,12,42,20.90
2006,08,15,12,43,20.90
2006,08,15,12,44,20.90
2006,08,15,12,45,20.90
2006,08,15,12,46,21.00
2006,08,15,12,47,21.00
2006,08,15,12,48,21.00
2006,08,15,12,49,21.00
2006,08,15,12,50,21.00
2006,08,15,12,51,20.90
2006,08,15,12,52,20.90
2006,08,15,12,53,20.90
2006,08,15,12,54,20.90
2006,08,15,12,55,21.00
2006,08,15,12,56,20.90
2006,08,15,12,57,20.90
2006,08,15,12,58,20.90
2006,08,15,12,59,20.80
2006,08,15,13,00,20.90
2006,08,15,13,01,20.80
2006,08,15,13,02,20.80
2006,08,15,13,03,20.90
2006,08,15,13,04,21.00
2006,08,15,13,05,21.10
2006,08,15,13,06,21.30
2006,08,15,13,07,21.40
2006,08,15,13,08,21.50
2006,08,15,13,09,21.60
2006,08,15,13,10,21.60
2006,08,15,13,11,21.60
2006,08,15,13,12,21.70
2006,08,15,13,13,21.70
2006,08,15,13,14,21.70
2006,08,15,13,15,21.60
2006,08,15,13,16,21.60
2006,08,15,13,17,21.50
2006,08,15,13,18,21.40
2006,08,15,13,19,21.50
2006,08,15,13,20,21.50
2006,08,15,13,21,21.60
2006,08,15,13,22,21.70
2006,08,15,13,23,21.70
2006,08,15,13,24,21.70
2006,08,15,13,25,21.60
2006,08,15,13,26,21.50
2006,08,15,13,27,21.40
2006,08,15,13,28,21.30
2006,08,15,13,29,21.30
2006,08,15,13,30,21.20
2006,08,15,13,31,21.20
2006,08,15,13,32,21.20
2006,08,15,13,33,21.30
2006,08,15,13,34,21.50
2006,08,15,13,35,21.60
2006,08,15,13,36,21.70
2006,08,15,13,37,21.80
2006,08,15,13,38,21.80
2006,08,15,13,39,21.90
2006,08,15,13,40,22.00
2006,08,15,13,41,22.00
2006,08,15,13,42,21.90
2006,08,15,13,43,22.00
2006,08,15,13,44,21.90
2006,08,15,13,45,22.00
2006,08,15,13,46,21.90
2006,08,15,13,47,21.80
2006,08,15,13,48,21.80
2006,08,15,13,49,21.80
2006,08,15,13,50,21.70
2006,08,15,13,51,21.70
2006,08,15,13,52,21.70
2006,08,15,13,53,21.70
2006,08,15,13,54,21.80
2006,08,15,13,55,21.80
2006,08,15,13,56,21.90
2006,08,15,13,57,21.90
2006,08,15,13,58,21.90
2006,08,15,13,59,21.90
2006,08,15,14,00,21.90
2006,08,15,14,01,21.80
2006,08,15,14,02,21.80
2006,08,15,14,03,21.70
2006,08,15,14,04,21.70
2006,08,15,14,05,21.60
2006,08,15,14,06,21.60
2006,08,15,14,07,21.60
2006,08,15,14,08,21.60
2006,08,15,14,09,21.70
2006,08,15,14,10,21.70
2006,08,15,14,11,21.70
2006,08,15,14,12,21.70
2006,08,15,14,13,21.60
2006,08,15,14,14,21.60
2006,08,15,14,15,21.60
2006,08,15,14,16,21.60
2006,08,15,14,17,21.60
2006,08,15,14,18,21.80
2006,08,15,14,19,21.90
2006,08,15,14,20,22.00
2006,08,15,14,21,22.10
2006,08,15,14,22,22.10
2006,08,15,14,23,21.90
2006,08,15,14,24,21.80
2006,08,15,14,25,21.80
2006,08,15,14,26,21.80
2006,08,15,14,27,21.80
2006,08,15,14,28,21.80
2006,08,15,14,29,21.70
2006,08,15,14,30,21.70
2006,08,15,14,31,21.70
2006,08,15,14,32,21.60
2006,08,15,14,33,21.60
2006,08,15,14,34,21.60
2006,08,15,14,35,21.60
2006,08,15,14,36,21.60
2006,08,15,14,37,21.60
2006,08,15,14,38,21.60
2006,08,15,14,39,21.60
2006,08,15,14,40,21.60
2006,08,15,14,41,21.50
2006,08,15,14,42,21.50
2006,08,15,14,43,21.40
2006,08,15,14,44,21.40
2006,08,15,14,45,21.30
2006,08,15,14,46,21.30
2006,08,15,14,47,21.30
2006,08,15,14,48,21.30
2006,08,15,14,49,21.40
2006,08,15,14,50,21.40
2006,08,15,14,51,21.60
2006,08,15,14,52,21.70
2006,08,15,14,53,21.80
2006,08,15,14,54,21.80
2006,08,15,14,55,21.80
2006,08,15,14,56,21.90
2006,08,15,14,57,21.90
2006,08,15,14,58,22.00
2006,08,15,14,59,22.10
2006,08,15,15,00,22.10
2006,08,15,15,01,22.00
2006,08,15,15,02,22.00
2006,08,15,15,03,21.80
2006,08,15,15,04,21.80
2006,08,15,15,05,21.70
2006,08,15,15,06,21.50
2006,08,15,15,07,21.40
2006,08,15,15,08,21.40
2006,08,15,15,09,21.40
2006,08,15,15,10,21.40
2006,08,15,15,11,21.30
2006,08,15,15,12,21.30
2006,08,15,15,13,21.40
2006,08,15,15,14,21.40
2006,08,15,15,15,21.40
2006,08,15,15,16,21.50
2006,08,15,15,17,21.50
2006,08,15,15,18,21.60
2006,08,15,15,19,21.60
2006,08,15,15,20,21.60
2006,08,15,15,21,21.60
2006,08,15,15,22,21.60
2006,08,15,15,23,21.60
2006,08,15,15,24,21.70
2006,08,15,15,25,21.80
2006,08,15,15,26,21.80
2006,08,15,15,27,21.80
2006,08,15,15,28,21.80
2006,08,15,15,29,21.80
2006,08,15,15,30,21.80
2006,08,15,15,31,21.80
2006,08,15,15,32,21.80
2006,08,15,15,33,21.80
2006,08,15,15,34,21.80
2006,08,15,15,35,21.80
2006,08,15,15,36,21.80
2006,08,15,15,37,21.90
2006,08,15,15,38,21.90
2006,08,15,15,39,21.90
2006,08,15,15,40,21.90
2006,08,15,15,41,21.90
2006,08,15,15,42,21.80
2006,08,15,15,43,21.70
2006,08,15,15,44,21.60
2006,08,15,15,45,21.60
2006,08,15,15,46,21.50
2006,08,15,15,47,21.50
2006,08,15,15,48,21.40
2006,08,15,15,49,21.40
2006,08,15,15,50,21.40
2006,08,15,15,51,21.40
2006,08,15,15,52,21.40
2006,08,15,15,53,21.40
2006,08,15,15,54,21.40
2006,08,15,15,55,21.50
2006,08,15,15,56,21.50
2006,08,15,15,57,21.50
2006,08,15,15,58,21.50
2006,08,15,15,59,21.50
2006,08,15,16,00,21.60
2006,08,15,16,01,21.60
2006,08,15,16,02,21.50
2006,08,15,16,03,21.40
2006,08,15,16,04,21.40
2006,08,15,16,05,21.40
2006,08,15,16,06,21.40
2006,08,15,16,07,21.50
2006,08,15,16,08,21.50
2006,08,15,16,09,21.60
2006,08,15,16,10,21.60
2006,08,15,16,11,21.70
2006,08,15,16,12,21.80
2006,08,15,16,13,21.80
2006,08,15,16,14,21.90
2006,08,15,16,15,21.90
2006,08,15,16,16,22.00
2006,08,15,16,17,22.00
2006,08,15,16,18,21.90
2006,08,15,16,19,21.80
2006,08,15,16,20,21.80
2006,08,15,16,21,21.80
2006,08,15,16,22,21.80
2006,08,15,16,23,21.70
2006,08,15,16,24,21.60
2006,08,15,16,25,21.60
2006,08,15,16,26,21.50
2006,08,15,16,27,21.50
2006,08,15,16,28,21.50
2006,08,15,16,29,21.40
2006,08,15,16,30,21.40
2006,08,15,16,31,21.40
2006,08,15,16,32,21.40
2006,08,15,16,33,21.40
2006,08,15,16,34,21.30
2006,08,15,16,35,21.30
2006,08,15,16,36,21.40
2006,08,15,16,37,21.40
2006,08,15,16,38,21.40
2006,08,15,16,39,21.40
2006,08,15,16,40,21.40
2006,08,15,16,41,21.40
2006,08,15,16,42,21.40
2006,08,15,16,43,21.50
2006,08,15,16,44,21.60
2006,08,15,16,45,21.70
2006,08,15,16,46,21.80
2006,08,15,16,47,21.80
2006,08,15,16,48,21.80
2006,08,15,16,49,21.80
2006,08,15,16,50,21.80
2006,08,15,16,51,21.80
2006,08,15,16,52,21.80
2006,08,15,16,53,21.90
2006,08,15,16,54,22.00
2006,08,15,16,55,22.20
2006,08,15,16,56,22.30
2006,08,15,16,57,22.30
2006,08,15,16,58,22.40
2006,08,15,16,59,22.40
2006,08,15,17,00,22.40
2006,08,15,17,01,22.30
2006,08,15,17,02,22.30
2006,08,15,17,03,22.30
2006,08,15,17,04,22.30
2006,08,15,17,05,22.40
2006,08,15,17,06,22.30
2006,08,15,17,07,22.30
2006,08,15,17,08,22.20
2006,08,15,17,09,22.20
2006,08,15,17,10,22.10
2006,08,15,17,11,22.10
2006,08,15,17,12,22.00
2006,08,15,17,13,21.90
2006,08,15,17,14,21.80
2006,08,15,17,15,21.80
2006,08,15,17,16,21.80
2006,08,15,17,17,21.70
2006,08,15,17,18,21.70
2006,08,15,17,19,21.70
2006,08,15,17,20,21.60
2006,08,15,17,21,21.60
2006,08,15,17,22,21.60
2006,08,15,17,23,21.70
2006,08,15,17,24,21.70
2006,08,15,17,25,21.70
2006,08,15,17,26,21.70
2006,08,15,17,27,21.70
2006,08,15,17,28,21.70
2006,08,15,17,29,21.80